Regional Weather Roundup
Issued by NWS

Current Version | Previous Version | Text Only | Print | Product List | Glossary On
Versions: 1 2 3 4 5 6 7 8 9 10 11 12 13 14 15 16 17 18 19 20 21 22 23 24 25 26 27 28 29 30 31 32 33 34 35 36 37 38 39 40 41 42 43 44 45 46 47 48 49 50
796
ASUS44 KFWD 130915
RWRTX
NORTH TEXAS HOURLY WEATHER ROUNDUP
NATIONAL WEATHER SERVICE FORT WORTH TX
300 AM CST FRI DEC 13 2019

NOTE: "FAIR" INDICATES FEW OR NO CLOUDS BELOW 12,000 FEET WITH NO
SIGNIFICANT WEATHER AND/OR OBSTRUCTIONS TO VISIBILITY.

TXZ118-119-131000-
DALLAS/FORT WORTH METROPLEX

CITY           SKY/WX    TMP DP  RH WIND       PRES   REMARKS
DFW AIRPORT    FAIR      41  40  96 SE6       29.91F WCI  37
DALLAS LOVE    FAIR      47  42  83 SE8       29.94F
FTW MEACHAM    FAIR      43  41  93 SE5       29.91F
DAL-EXECUTIVE  FAIR      45  41  86 SE6       29.93F
FTW-ALLIANCE   FAIR      44  40  85 S8        29.91F WCI  39
FTW-NAS-JRB    FAIR      60  40  47 S5        29.93F
FTW-SPINKS     FAIR      44  40  86 S5        29.94F
ARLINGTON      FAIR      46  43  89 S6        29.93F
GRAND PRAIRIE  FAIR      47  43  85 S6        29.94F
ADDISON        FAIR      45  42  90 SE7       29.95F
MESQUITE       FAIR      43  42  95 SE7       29.96F WCI  39
LANCASTER      FAIR      40  38  95 CALM      29.96F FOG
$$

TXZ091>094-102>105-117-120-121-131>134-131000-
NORTH CENTRAL TEXAS

CITY           SKY/WX    TMP DP  RH WIND       PRES   REMARKS
SHRMAN/DENISON FAIR      41  38  89 E5        29.95F WCI  38
GAINESVILLE    FAIR      39  38  97 CALM      29.94F
BOWIE          FAIR      42  41  96 CALM      29.92F
BRIDGEPORT     FAIR      34  34 100 CALM      29.93F FOG
DECATUR        FAIR      38  37  94 E3        29.91F FOG
DENTON         FAIR      39  37  92 E5        29.93F WCI  36
MCKINNEY       FAIR      42  39  89 SE5       29.94F WCI  39
BONHAM         CLOUDY    41  39  91 E6        29.96F WCI  37
GREENVILLE     FAIR      43  41  93 CALM      29.98F
ROCKWALL       FAIR      44  43  94 SE7       29.96F
TERRELL        FAIR      44  40  85 SE7       29.97F
WAXAHACHIE     FAIR      42  42 100 S3        29.96F FOG
CLEBURNE       FAIR      43  43 100 S9        29.94F WCI  37
GRANBURY       FAIR      43  39  87 CALM      29.93F
$$

TXZ083>090-098>101-113>116-127>130-139>142-154-155-131000-
WESTERN NORTH TEXAS

CITY           SKY/WX    TMP DP  RH WIND       PRES   REMARKS
WICHITA FALLS  FAIR      36  36 100 NE5       29.91F WCI  32
WF-KICKAPOO    FAIR      37  35  92 CALM      29.94F
VERNON         FAIR      35  33  93 N7        29.93S WCI  29
ABILENE        FAIR      48  41  76 SW9       29.92F
ABILENE-DYESS  FAIR      45  37  75 NW7       29.92R
GRAHAM         FAIR      37  37 100 CALM      29.90F
BRECKENRIDGE   FAIR      47  42  84 MISG      29.91F
CISCO          FAIR      52  43  71 SW17      29.91F
EASTLAND       FAIR      42  39  89 S3        29.92F
RANGER         FAIR      46  41  84 SW10      29.92F
MINERAL WELLS  FAIR      39  37  92 CALM      29.91F
STEPHENVILLE   FAIR      42  38  86 CALM      29.94F
COMANCHE       FAIR      49  43  78 SW13      29.92F
BROWNWOOD      FAIR      36  34  93 CALM      29.95F
COLEMAN        FAIR      50  41  70 W13G18    29.94F
BRADY          FAIR      48  41  76 SW12      29.95F
$$

TXZ143>147-156>162-174-175-131000-
CENTRAL TEXAS

CITY           SKY/WX    TMP DP  RH WIND       PRES   REMARKS
WACO           FAIR      47  42  83 S12       29.96F
WACO-MCGREGOR  FAIR      42  40  92 S6        29.97F WCI  38
HILLSBORO      FAIR      46  45  97 S7        29.95F
CORSICANA      FAIR      43  41  93 S8        29.99F WCI  38
MEXIA          FAIR      44  44  99 S12       29.98F WCI  38
HEARNE         MOCLDY    47  45  91 CALM      30.03S
CAMERON        FAIR      46  45  97 S5        30.01S
TEMPLE         FAIR      43  43 100 S9        29.99F WCI  38
KILLEEN        FAIR      42  37  83 SE9       29.95F WCI  36
KILLEEN-SKYLRK FAIR      43  37  79 S6        29.97F WCI  39
FORT HOOD      FAIR      44  37  75 S5        29.96F
GATESVILLE     FAIR      43  37  81 CALM      29.97F
HAMILTON       FAIR      45  40  84 SW10      29.94F WCI  39
$$

TXZ095>097-106>112-122>126-135>138-148>153-164>167-131000-
EAST TEXAS

CITY           SKY/WX    TMP DP  RH WIND       PRES   REMARKS
PARIS          FAIR      38  34  85 E7        30.00F WCI  33
SULPHUR SPRNGS MOCLDY    43  41  93 SE6       30.01F WCI  40
MOUNT PLEASANT CLOUDY    41  37  86 CALM      30.03F
GILMER         FAIR      40  37  89 CALM      30.02F
MINEOLA        FAIR      36  36 100 CALM      30.00F
TYLER          FAIR      44  39  82 S8        30.00F WCI  39
LONGVIEW       FAIR      38  35  89 CALM      30.01F
MARSHALL       CLOUDY    40  38  92 CALM      30.04F
ATHENS         FAIR      39  37  93 CALM      29.99F
PALESTINE      FAIR      46  43  91 SE5       30.02F
JACKSONVILLE   FAIR      45  42  91 S6        30.02F
HENDERSON      FAIR      37  36  96 CALM      30.02F
CENTER         MOCLDY    40  39  94 CALM      30.05F
NACOGDOCHES    CLOUDY    47  44  90 SE3       30.03F
LUFKIN         MOCLDY    44  41  89 SE5       30.01F
$$

SUPPLEMENTAL OBSERVATIONS (NWS FORT WORTH AREA)

CITY           SKY/WX    TMP DP  RH WIND       PRES   REMARKS
CADDO GRASSLND   N/A     41  36  81 SE5         N/A  WCI  38
LBJ GRASSLAND    N/A     41  37  87 E3          N/A
COMANCHE         N/A     48  39  71 SW12        N/A
MCGREGOR         N/A     41  37  87 S3          N/A
LAKE LIMESTONE   N/A     45  43  93 S3          N/A
$$

SUPPLEMENTAL OBSERVATIONS (NWS NORMAN AREA)

CITY           SKY/WX    TMP DP  RH WIND       PRES   REMARKS
GOODLETT         N/A     36  33  90 NW7       29.92  WCI  30
ODELL            N/A     31  30  96 NW6       29.93  WCI  25
CROWELL          N/A     38  35  91 NW8       29.93  WCI  32
KNOX CITY        N/A     34  33  94 SW2       29.92
SEYMOUR          N/A     33  32  96 SW1       29.91
$$

SUPPLEMENTAL OBSERVATIONS (NWS SAN ANGELO AREA)

CITY           SKY/WX    TMP DP  RH WIND       PRES   REMARKS
WEINERT          N/A     35  32  91 N1        29.91
HASKELL          N/A     41  35  79 W7        29.90  WCI  37
STAMFORD         N/A     38  36  93 CALM      29.92
CLYDE            N/A     47  41  80 SW12      29.92
HAMBY            N/A     43  37  81 S1          N/A
IVIE RESERVOIR   N/A     48  41  76 NW5         N/A
COLORADO BEND    N/A     48  39  71 SW9         N/A
$$

SUPPLEMENTAL OBSERVATIONS (NWS SHREVEPORT AREA)

CITY           SKY/WX    TMP DP  RH WIND       PRES   REMARKS
TEXARKANA        N/A     34  32  93 CALM        N/A
CADDO LAKE       N/A     39  37  93 CALM        N/A
LUFKIN           N/A     39  36  87 MISG        N/A
N SABINE NF      N/A     39  34  81 MISG        N/A
$$

SUPPLEMENTAL OBSERVATIONS ARE A COLLECTION OF AUTOMATED INSTRUMENTS
THAT ARE MAINTAINED BY A VARIETY OF FEDERAL AND STATE AGENCIES.
CERTAIN ELEMENTS...SUCH AS HUMIDITY VALUES AND SUSTAINED WIND
SPEEDS...MAY BE APPROXIMATED.





USA.gov is the U.S. government's official web portal to all federal, state and local government web resources and services.